DELTA 1 DEB, 14470

Orbit data source: Space-Track

DELTA 1 DEB, 14470 is space debris in SSO originally from a launch on Tue, 06 Nov 1973 UTC launched from the Air Force Western Test Range (AFWTR). Debris objects in space refer to the collection of defunct objects orbiting the Earth. Examples of debris include non-operational satellites, rocket bodies, and fragments generated from explosions, collisions, or faulty payload assembly.

Loading next visibility...
Identifier
14470, 1973-086GP
Orbit
SSO
Country
Flag of USUS
Related business
Manufacturer
Unknown
Mission
Spacecraft
Bus & Motor
Unknown
Mass
Unknown
Launch date (UTC)
1973-11-06 (52 years ago)
Launch vehicle
Unknown
Launch site
Air Force Western Test Range (AFWTR)
Object type
Payload
Rocket body
Debris
Shape & HBR
Unknown shape, 0.1 m
Radar Cross Section
Small (<0.1 m²)

Expand to show TLE details & history
Last TLE update: 23 hours ago

TLE from 23 hours ago
0 DELTA 1 DEB
1 14470U 73086GP  25353.23373183 -.00000046  00000-0  13635-4 0  9991
2 14470 101.7682 241.6146 0113521 208.1253 272.1331 12.84015978  8362
Epoch: 2025-12-19T05:36Z
TLE epoch observation values (Epoch: 2025-12-19T05:36:34.430Z)
Latitude
59.02898°
Longitude
-90.40112°
Altitude
1,332.915 km
Speed
7.198 km/s
True Right ascension
05h 27m 16s
True Declination
58° 53' 18"
Sunlit
Object was in full shadow at epoch
Visualization orbit readout
Latitude
Unknown
Longitude
Unknown
Altitude
Unknown
Speed
Unknown
Apparent Right ascension
Unknown
Apparent Declination
Unknown
Sunlit
N/A
Visualization observer readout
Local Sidereal Time
03:36:47
Azimuth
Unknown
Elevation
Unknown
Doppler factor
Unknown
Orbital elements
Apogee altitude
1,410.291 km
Perigee altitude
1,235.446 km
Semi-major axis
7,701.005 km
Eccentricity
0.01135
Inclination
101.7682°
RAAN
241.6146°
Arg. of periapsis
208.1253°
True anomaly
270.83257°
Mean anomaly
272.1331°
Eccentric anomaly
271.48289°
Mean motion
3.2116 °/min
Orbital period
112.09 mins
BSTAR
0.000013635
Loading maneuver chart data...
Computing Atmospheric mass density...
Loading historical data...
Loading historical data...
Loading historical data...
Loading historical data...
Loading historical data...
Loading historical data...
Loading historical data...

Documentation

Showing up to 5 results
|